Location: *
(41.0833°N, 73.4167°W)
Time: 18:29:50
(UTC+00:00)

H-2A R/B - Pass Details

Date: 22 October 2019
Orbit: 734 x 837 km, 98.3° (Epoch: 12 November)

Event Time Altitude Azimuth Distance (km) Brightness Sun altitude
Exits shadow 01:25:30 23° 328° (NNW) 1,717 4.2 -38.1°
Drops below altitude 10° 01:27:31 10° 337° (NNW) 2,443 5.0 -38.5°
Sets 01:29:58 0° 342° (NNW) 3,388 5.8 -38.9°
